| time (UTC) | temp F | wind direction | speed MPH | gust MPH | rain 1hr in | rain 24hr in | rain mn in | humidity % | barometer mb |
| 20260510182502 | 91 | 257 | 10.0 | 18.0 | 0.00 | 0.00 | 0.00 | 52 | 1015.4 |
| 20260510182003 | 91 | 275 | 11.0 | 17.0 | 0.00 | 0.00 | 0.00 | 53 | 1015.5 |
| 20260510181504 | 91 | 194 | 9.0 | 16.0 | 0.00 | 0.00 | 0.00 | 52 | 1015.4 |
| 20260510181004 | 92 | 263 | 9.0 | 16.0 | 0.00 | 0.00 | 0.00 | 51 | 1015.5 |
| 20260510180504 | 91 | 278 | 9.0 | 15.0 | 0.00 | 0.00 | 0.00 | 52 | 1015.4 |
| 20260510180005 | 91 | 258 | 6.0 | 15.0 | 0.00 | 0.00 | 0.00 | 51 | 1015.5 |
| 20260510175503 | 90 | 264 | 9.0 | 15.0 | 0.00 | 0.00 | 0.00 | 53 | 1015.6 |
| 20260510175006 | 89 | 270 | 5.0 | 15.0 | 0.00 | 0.00 | 0.00 | 57 | 1015.6 |
| 20260510174507 | 90 | 277 | 3.0 | 15.0 | 0.00 | 0.00 | 0.00 | 55 | 1015.7 |
| 20260510174007 | 92 | 213 | 3.0 | 15.0 | 0.00 | 0.00 | 0.00 | 55 | 1015.6 |
| 20260510173507 | 91 | 279 | 5.0 | 11.0 | 0.00 | 0.00 | 0.00 | 57 | 1015.6 |
| 20260510173004 | 90 | 263 | 4.0 | 10.0 | 0.00 | 0.00 | 0.00 | 57 | 1015.8 |
| 20260510172506 | 90 | 165 | 5.0 | 12.0 | 0.00 | 0.00 | 0.00 | 58 | 1015.8 |
| 20260510172006 | 89 | 212 | 6.0 | 12.0 | 0.00 | 0.00 | 0.00 | 59 | 1015.9 |
| 20260510171518 | 89 | 227 | 4.0 | 11.0 | 0.00 | 0.00 | 0.00 | 60 | 1016.1 |
| 20260510171001 | 89 | 178 | 4.0 | 11.0 | 0.00 | 0.00 | 0.00 | 61 | 1016.1 |
| 20260510170504 | 89 | 148 | 3.0 | 7.0 | 0.00 | 0.00 | 0.00 | 61 | 1016.1 |
| 20260510170005 | 88 | 204 | 2.0 | 7.0 | 0.00 | 0.00 | 0.00 | 61 | 1016.2 |
| 20260510165503 | 89 | 177 | 4.0 | 7.0 | 0.00 | 0.00 | 0.00 | 59 | 1016.4 |
| 20260510165004 | 89 | 190 | 1.0 | 9.0 | 0.00 | 0.00 | 0.00 | 61 | 1016.4 |
| 20260510164510 | 89 | 225 | 5.0 | 9.0 | 0.00 | 0.00 | 0.00 | 61 | 1016.4 |
| 20260510164005 | 88 | 145 | 2.0 | 14.0 | 0.00 | 0.00 | 0.00 | 61 | 1016.4 |
| 20260510163503 | 87 | 155 | 2.0 | 14.0 | 0.00 | 0.00 | 0.00 | 64 | 1016.6 |
| 20260510163016 | 88 | 259 | 6.0 | 14.0 | 0.00 | 0.00 | 0.00 | 62 | 1016.6 |
| 20260510162506 | 87 | 198 | 4.0 | 9.0 | 0.00 | 0.00 | 0.00 | 63 | 1016.7 |
| 20260510162006 | 88 | 224 | 5.0 | 9.0 | 0.00 | 0.00 | 0.00 | 63 | 1016.8 |
| 20260510161507 | 87 | 98 | 2.0 | 7.0 | 0.00 | 0.00 | 0.00 | 64 | 1016.9 |
| 20260510161007 | 87 | 178 | 3.0 | 8.0 | 0.00 | 0.00 | 0.00 | 65 | 1017.0 |
| 20260510160509 | 86 | 243 | 3.0 | 8.0 | 0.00 | 0.00 | 0.00 | 66 | 1017.0 |
| 20260510160003 | 86 | 238 | 3.0 | 8.0 | 0.00 | 0.00 | 0.00 | 65 | 1016.9 |
| 20260510155505 | 86 | 178 | 4.0 | 10.0 | 0.00 | 0.00 | 0.00 | 65 | 1016.9 |
| 20260510155003 | 87 | 178 | 6.0 | 14.0 | 0.00 | 0.00 | 0.00 | 65 | 1017.0 |
| 20260510154508 | 86 | 241 | 8.0 | 14.0 | 0.00 | 0.00 | 0.00 | 65 | 1016.9 |
| 20260510154004 | 87 | 265 | 5.0 | 11.0 | 0.00 | 0.00 | 0.00 | 68 | 1016.8 |
| 20260510153504 | 86 | 268 | 4.0 | 13.0 | 0.00 | 0.00 | 0.00 | 68 | 1016.9 |
| 20260510153011 | 85 | 254 | 8.0 | 13.0 | 0.00 | 0.00 | 0.00 | 69 | 1017.0 |
| 20260510152508 | 85 | 175 | 4.0 | 10.0 | 0.00 | 0.00 | 0.00 | 67 | 1017.0 |
| 20260510152007 | 85 | 192 | 3.0 | 11.0 | 0.00 | 0.00 | 0.00 | 69 | 1017.0 |
| 20260510151513 | 85 | 205 | 5.0 | 11.0 | 0.00 | 0.00 | 0.00 | 68 | 1016.9 |
| 20260510151005 | 85 | 240 | 2.0 | 11.0 | 0.00 | 0.00 | 0.00 | 70 | 1016.9 |
| 20260510150504 | 84 | 209 | 3.0 | 12.0 | 0.00 | 0.00 | 0.00 | 70 | 1016.9 |
| 20260510150011 | 84 | 223 | 5.0 | 13.0 | 0.00 | 0.00 | 0.00 | 71 | 1016.9 |
| 20260510145509 | 84 | 179 | 3.0 | 13.0 | 0.00 | 0.00 | 0.00 | 70 | 1016.8 |
| 20260510145010 | 83 | 188 | 2.0 | 10.0 | 0.00 | 0.00 | 0.00 | 70 | 1016.8 |
| 20260510144510 | 84 | 260 | 3.0 | 7.0 | 0.00 | 0.00 | 0.00 | 71 | 1016.8 |
| 20260510144007 | 84 | 219 | 4.0 | 8.0 | 0.00 | 0.00 | 0.00 | 71 | 1016.8 |
| 20260510143503 | 83 | 171 | 3.0 | 8.0 | 0.00 | 0.00 | 0.00 | 71 | 1016.7 |
| 20260510143004 | 83 | 132 | 3.0 | 8.0 | 0.00 | 0.00 | 0.00 | 71 | 1016.8 |
| 20260510142505 | 83 | 174 | 3.0 | 6.0 | 0.00 | 0.00 | 0.00 | 71 | 1016.7 |
| 20260510142006 | 83 | 114 | 2.0 | 8.0 | 0.00 | 0.00 | 0.00 | 72 | 1016.6 |
| 20260510141514 | 83 | 171 | 4.0 | 12.0 | 0.00 | 0.00 | 0.00 | 71 | 1016.5 |
| 20260510141004 | 83 | 205 | 2.0 | 12.0 | 0.00 | 0.00 | 0.00 | 73 | 1016.6 |
| 20260510140507 | 82 | 220 | 4.0 | 8.0 | 0.00 | 0.00 | 0.00 | 73 | 1016.5 |
| 20260510140016 | 82 | 150 | 3.0 | 7.0 | 0.00 | 0.00 | 0.00 | 74 | 1016.6 |
| 20260510135505 | 81 | 190 | 3.0 | 10.0 | 0.00 | 0.00 | 0.00 | 75 | 1016.6 |
| 20260510135008 | 81 | 200 | 3.0 | 10.0 | 0.00 | 0.00 | 0.00 | 75 | 1016.6 |
| 20260510134520 | 81 | 175 | 4.0 | 9.0 | 0.00 | 0.00 | 0.00 | 76 | 1016.5 |
| 20260510134010 | 81 | 126 | 3.0 | 7.0 | 0.00 | 0.00 | 0.00 | 76 | 1016.4 |
| 20260510133507 | 80 | 161 | 3.0 | 8.0 | 0.00 | 0.00 | 0.00 | 77 | 1016.5 |
| 20260510133019 | 80 | 168 | 4.0 | 8.0 | 0.00 | 0.00 | 0.00 | 78 | 1016.5 |
| 20260510132511 | 79 | 174 | 3.0 | 6.0 | 0.00 | 0.00 | 0.00 | 79 | 1016.5 |
| 20260510132010 | 79 | 157 | 2.0 | 5.0 | 0.00 | 0.00 | 0.00 | 80 | 1016.4 |
| 20260510131512 | 79 | 149 | 1.0 | 5.0 | 0.00 | 0.00 | 0.00 | 80 | 1016.4 |
| 20260510131005 | 79 | 153 | 2.0 | 5.0 | 0.00 | 0.00 | 0.00 | 81 | 1016.4 |
| 20260510130506 | 78 | 153 | 2.0 | 5.0 | 0.00 | 0.00 | 0.00 | 82 | 1016.4 |
| 20260510130014 | 77 | 154 | 1.0 | 5.0 | 0.00 | 0.00 | 0.00 | 83 | 1016.4 |
| 20260510125506 | 77 | 157 | 1.0 | 5.0 | 0.00 | 0.00 | 0.00 | 83 | 1016.4 |
| 20260510125007 | 77 | 173 | 2.0 | 4.0 | 0.00 | 0.00 | 0.00 | 84 | 1016.3 |
| 20260510124518 | 76 | 193 | 1.0 | 4.0 | 0.00 | 0.00 | 0.00 | 85 | 1016.3 |
| 20260510124007 | 76 | 191 | 1.0 | 4.0 | 0.00 | 0.00 | 0.00 | 85 | 1016.2 |
| 20260510123510 | 76 | 192 | 1.0 | 4.0 | 0.00 | 0.00 | 0.00 | 86 | 1016.2 |
| 20260510123026 | 75 | 198 | 1.0 | 4.0 | 0.00 | 0.00 | 0.00 | 86 | 1016.2 |
| 20260510122509 | 75 | 254 | 2.0 | 3.0 | 0.00 | 0.00 | 0.00 | 87 | 1016.2 |
| 20260510122006 | 75 | 177 | 0.0 | 5.0 | 0.00 | 0.00 | 0.00 | 87 | 1016.0 |
| 20260510121526 | 75 | 217 | 1.0 | 5.0 | 0.00 | 0.00 | 0.00 | 87 | 1016.0 |
| 20260510121008 | 75 | 223 | 2.0 | 5.0 | 0.00 | 0.00 | 0.00 | 88 | 1015.9 |
| 20260510120508 | 74 | 194 | 0.0 | 5.0 | 0.00 | 0.00 | 0.00 | 88 | 1015.9 |
| 20260510120028 | 74 | 154 | 1.0 | 5.0 | 0.00 | 0.00 | 0.00 | 88 | 1015.8 |
| 20260510115507 | 74 | 193 | 1.0 | 4.0 | 0.00 | 0.00 | 0.00 | 88 | 1015.7 |
| 20260510115011 | 74 | 198 | 0.0 | 4.0 | 0.00 | 0.00 | 0.00 | 89 | 1015.6 |
| 20260510114515 | 74 | 208 | 0.0 | 0.0 | 0.00 | 0.00 | 0.00 | 89 | 1015.4 |
| 20260510114010 | 74 | 218 | 0.0 | 0.0 | 0.00 | 0.00 | 0.00 | 89 | 1015.5 |
| 20260510113507 | 74 | 208 | 0.0 | 0.0 | 0.00 | 0.00 | 0.00 | 89 | 1015.3 |
| 20260510113016 | 74 | 148 | 0.0 | 0.0 | 0.00 | 0.00 | 0.00 | 89 | 1015.1 |
| 20260510112516 | 74 | 142 | 0.0 | 0.0 | 0.00 | 0.00 | 0.00 | 89 | 1015.0 |
| 20260510112009 | 73 | 157 | 0.0 | 0.0 | 0.00 | 0.00 | 0.00 | 90 | 1014.9 |
| 20260510111538 | 73 | 157 | 0.0 | 1.0 | 0.00 | 0.00 | 0.00 | 90 | 1014.8 |
| 20260510111007 | 73 | 147 | 0.0 | 1.0 | 0.00 | 0.00 | 0.00 | 90 | 1014.7 |
| 20260510110514 | 73 | 147 | 0.0 | 1.0 | 0.00 | 0.00 | 0.00 | 90 | 1014.7 |
| 20260510110028 | 73 | 147 | 0.0 | 1.0 | 0.00 | 0.00 | 0.00 | 90 | 1014.6 |
| 20260510105507 | 73 | 147 | 0.0 | 1.0 | 0.00 | 0.00 | 0.00 | 90 | 1014.5 |
| 20260510105007 | 73 | 147 | 0.0 | 2.0 | 0.00 | 0.00 | 0.00 | 90 | 1014.5 |
| 20260510104538 | 73 | 147 | 0.0 | 2.0 | 0.00 | 0.00 | 0.00 | 90 | 1014.4 |
| 20260510104010 | 73 | 192 | 0.0 | 2.0 | 0.00 | 0.00 | 0.00 | 90 | 1014.5 |
| 20260510103506 | 73 | 157 | 0.0 | 0.0 | 0.00 | 0.00 | 0.00 | 90 | 1014.5 |
| 20260510103018 | 73 | 171 | 0.0 | 3.0 | 0.00 | 0.00 | 0.00 | 90 | 1014.4 |
| 20260510102507 | 73 | 142 | 0.0 | 3.0 | 0.00 | 0.00 | 0.00 | 90 | 1014.3 |
| 20260510102006 | 73 | 163 | 0.0 | 4.0 | 0.00 | 0.00 | 0.00 | 90 | 1014.3 |
| 20260510101526 | 73 | 169 | 0.0 | 4.0 | 0.00 | 0.00 | 0.00 | 90 | 1014.1 |
| 20260510101013 | 73 | 163 | 0.0 | 4.0 | 0.00 | 0.00 | 0.00 | 90 | 1014.0 |
| 20260510100516 | 73 | 159 | 1.0 | 4.0 | 0.00 | 0.00 | 0.00 | 90 | 1013.9 |
| 20260510100024 | 73 | 163 | 1.0 | 4.0 | 0.00 | 0.00 | 0.00 | 90 | 1013.8 |
| 20260510095508 | 73 | 152 | 2.0 | 4.0 | 0.00 | 0.00 | 0.00 | 90 | 1013.8 |
| 20260510095006 | 73 | 131 | 1.0 | 4.0 | 0.00 | 0.00 | 0.00 | 90 | 1013.9 |
| 20260510094509 | 73 | 164 | 1.0 | 2.0 | 0.00 | 0.00 | 0.00 | 90 | 1013.8 |
| 20260510094003 | 73 | 159 | 0.0 | 2.0 | 0.00 | 0.00 | 0.00 | 90 | 1013.8 |
| 20260510093507 | 73 | 159 | 0.0 | 3.0 | 0.00 | 0.00 | 0.00 | 90 | 1013.8 |
| 20260510093015 | 73 | 165 | 0.0 | 4.0 | 0.00 | 0.00 | 0.00 | 90 | 1013.8 |
| 20260510092511 | 73 | 144 | 1.0 | 4.0 | 0.00 | 0.00 | 0.00 | 90 | 1013.7 |
| 20260510092011 | 73 | 169 | 2.0 | 5.0 | 0.00 | 0.00 | 0.00 | 90 | 1013.7 |
| 20260510091542 | 73 | 154 | 2.0 | 5.0 | 0.00 | 0.00 | 0.00 | 90 | 1013.7 |
| 20260510091007 | 73 | 160 | 2.0 | 5.0 | 0.00 | 0.00 | 0.00 | 90 | 1013.6 |
| 20260510090508 | 73 | 159 | 2.0 | 5.0 | 0.00 | 0.00 | 0.00 | 90 | 1013.5 |
| 20260510090027 | 73 | 136 | 2.0 | 6.0 | 0.00 | 0.00 | 0.00 | 90 | 1013.5 |
| 20260510085506 | 73 | 145 | 1.0 | 6.0 | 0.00 | 0.00 | 0.00 | 90 | 1013.5 |
| 20260510085007 | 73 | 126 | 1.0 | 4.0 | 0.00 | 0.00 | 0.00 | 90 | 1013.4 |
| 20260510084528 | 73 | 135 | 2.0 | 4.0 | 0.00 | 0.00 | 0.00 | 90 | 1013.3 |
| 20260510084011 | 73 | 151 | 2.0 | 6.0 | 0.00 | 0.00 | 0.00 | 90 | 1013.2 |
| 20260510083510 | 73 | 151 | 2.0 | 6.0 | 0.00 | 0.00 | 0.00 | 90 | 1013.1 |
| 20260510083019 | 73 | 121 | 2.0 | 6.0 | 0.00 | 0.00 | 0.00 | 90 | 1013.0 |
| 20260510082506 | 73 | 148 | 3.0 | 6.0 | 0.00 | 0.00 | 0.00 | 90 | 1013.0 |
| 20260510082008 | 73 | 151 | 2.0 | 4.0 | 0.00 | 0.00 | 0.00 | 90 | 1013.1 |
| 20260510081535 | 73 | 151 | 2.0 | 5.0 | 0.00 | 0.00 | 0.00 | 89 | 1013.0 |
| 20260510081006 | 73 | 142 | 2.0 | 7.0 | 0.00 | 0.00 | 0.00 | 89 | 1013.1 |
| 20260510080509 | 73 | 139 | 3.0 | 7.0 | 0.00 | 0.00 | 0.00 | 89 | 1013.2 |
| 20260510080015 | 73 | 152 | 4.0 | 6.0 | 0.00 | 0.00 | 0.00 | 89 | 1013.2 |
| 20260510075506 | 73 | 123 | 3.0 | 9.0 | 0.00 | 0.00 | 0.00 | 89 | 1013.3 |
| 20260510075007 | 74 | 135 | 4.0 | 9.0 | 0.00 | 0.00 | 0.00 | 89 | 1013.3 |
| 20260510074529 | 73 | 148 | 3.0 | 7.0 | 0.00 | 0.00 | 0.00 | 89 | 1013.2 |
| 20260510074011 | 74 | 111 | 3.0 | 8.0 | 0.00 | 0.00 | 0.00 | 89 | 1013.4 |
| 20260510073513 | 74 | 127 | 3.0 | 8.0 | 0.00 | 0.00 | 0.00 | 90 | 1013.4 |
| 20260510073036 | 74 | 139 | 3.0 | 6.0 | 0.00 | 0.00 | 0.00 | 90 | 1013.4 |
| 20260510072510 | 74 | 161 | 2.0 | 5.0 | 0.00 | 0.00 | 0.00 | 90 | 1013.5 |
| 20260510072008 | 74 | 150 | 2.0 | 4.0 | 0.00 | 0.00 | 0.00 | 90 | 1013.6 |
| 20260510071534 | 74 | 131 | 2.0 | 6.0 | 0.00 | 0.00 | 0.00 | 90 | 1013.6 |
| 20260510071009 | 74 | 126 | 2.0 | 6.0 | 0.00 | 0.00 | 0.00 | 90 | 1013.6 |
| 20260510070506 | 74 | 130 | 3.0 | 6.0 | 0.00 | 0.00 | 0.00 | 90 | 1013.6 |
| 20260510070028 | 74 | 125 | 3.0 | 5.0 | 0.00 | 0.00 | 0.00 | 90 | 1013.6 |
| 20260510065506 | 74 | 150 | 1.0 | 5.0 | 0.00 | 0.00 | 0.00 | 90 | 1013.7 |
| 20260510065012 | 74 | 124 | 3.0 | 6.0 | 0.00 | 0.00 | 0.00 | 90 | 1013.7 |
| 20260510064546 | 74 | 117 | 2.0 | 6.0 | 0.00 | 0.00 | 0.00 | 90 | 1013.7 |
| 20260510064008 | 74 | 123 | 2.0 | 5.0 | 0.00 | 0.00 | 0.00 | 89 | 1013.7 |
| 20260510063509 | 74 | 120 | 3.0 | 5.0 | 0.00 | 0.00 | 0.00 | 90 | 1013.8 |
| 20260510063025 | 74 | 130 | 2.0 | 5.0 | 0.00 | 0.00 | 0.00 | 90 | 1014.0 |
| 20260510062509 | 74 | 132 | 1.0 | 4.0 | 0.00 | 0.00 | 0.00 | 90 | 1014.1 |
| 20260510062010 | 74 | 165 | 1.0 | 7.0 | 0.00 | 0.00 | 0.00 | 89 | 1014.3 |
| 20260510061541 | 74 | 147 | 2.0 | 7.0 | 0.00 | 0.00 | 0.00 | 89 | 1014.4 |
| 20260510061007 | 74 | 132 | 3.0 | 6.0 | 0.00 | 0.00 | 0.00 | 89 | 1014.4 |
| 20260510060510 | 74 | 128 | 1.0 | 3.0 | 0.00 | 0.00 | 0.00 | 89 | 1014.4 |
| 20260510060035 | 74 | 123 | 2.0 | 4.0 | 0.00 | 0.00 | 0.00 | 89 | 1014.4 |
| 20260510055511 | 74 | 116 | 2.0 | 4.0 | 0.00 | 0.00 | 0.00 | 89 | 1014.4 |
| 20260510055006 | 74 | 122 | 2.0 | 5.0 | 0.00 | 0.00 | 0.00 | 89 | 1014.5 |
| 20260510054503 | 74 | 118 | 2.0 | 5.0 | 0.00 | 0.00 | 0.00 | 89 | 1014.6 |
| 20260510054003 | 73 | 125 | 1.0 | 3.0 | 0.00 | 0.00 | 0.00 | 89 | 1014.7 |
| 20260510053506 | 73 | 123 | 0.0 | 3.0 | 0.00 | 0.00 | 0.00 | 89 | 1014.8 |
| 20260510053016 | 73 | 127 | 1.0 | 3.0 | 0.00 | 0.00 | 0.00 | 89 | 1014.8 |
| 20260510052503 | 73 | 121 | 2.0 | 3.0 | 0.00 | 0.00 | 0.00 | 89 | 1014.9 |
| 20260510052007 | 73 | 135 | 0.0 | 2.0 | 0.00 | 0.00 | 0.00 | 88 | 1014.9 |
| 20260510051504 | 74 | 135 | 0.0 | 3.0 | 0.00 | 0.00 | 0.00 | 88 | 1015.0 |
| 20260510051004 | 74 | 126 | 1.0 | 3.0 | 0.00 | 0.00 | 0.00 | 88 | 1014.9 |
| 20260510050504 | 74 | 123 | 1.0 | 3.0 | 0.00 | 0.00 | 0.00 | 88 | 1015.1 |
| 20260510050004 | 74 | 132 | 2.0 | 3.0 | 0.00 | 0.00 | 0.00 | 88 | 1015.1 |
| 20260510045509 | 74 | 113 | 2.0 | 3.0 | 0.00 | 0.00 | 0.00 | 88 | 1015.0 |
| 20260510045010 | 73 | 107 | 1.0 | 3.0 | 0.00 | 0.00 | 0.00 | 87 | 1015.1 |
| 20260510044507 | 73 | 131 | 1.0 | 2.0 | 0.00 | 0.00 | 0.00 | 88 | 1015.1 |
| 20260510044004 | 73 | 143 | 0.0 | 1.0 | 0.00 | 0.00 | 0.00 | 89 | 1015.2 |
| 20260510043504 | 73 | 111 | 0.0 | 0.0 | 0.00 | 0.00 | 0.00 | 88 | 1015.4 |
| 20260510043003 | 73 | 111 | 0.0 | 0.0 | 0.00 | 0.00 | 0.00 | 88 | 1015.3 |
| 20260510042503 | 73 | 111 | 0.0 | 0.0 | 0.00 | 0.00 | 0.00 | 88 | 1015.5 |
| 20260510042009 | 73 | 111 | 0.0 | 2.0 | 0.00 | 0.00 | 0.00 | 88 | 1015.5 |
| 20260510041503 | 73 | 111 | 0.0 | 3.0 | 0.00 | 0.00 | 0.00 | 88 | 1015.4 |
| 20260510041005 | 73 | 106 | 1.0 | 3.0 | 0.00 | 0.00 | 0.00 | 88 | 1015.3 |
| 20260510040503 | 73 | 99 | 0.0 | 0.0 | 0.00 | 0.00 | 0.00 | 88 | 1015.3 |
| 20260510040006 | 73 | 61 | 0.0 | 0.0 | 0.00 | 0.00 | 0.00 | 87 | 1015.3 |
| 20260510035503 | 73 | 61 | 0.0 | 0.0 | 0.00 | 0.00 | 0.00 | 87 | 1015.4 |
| 20260510035002 | 73 | 61 | 0.0 | 0.0 | 0.00 | 0.00 | 0.00 | 87 | 1015.3 |
| 20260510034504 | 73 | 101 | 0.0 | 0.0 | 0.00 | 0.00 | 0.00 | 86 | 1015.3 |
| 20260510034005 | 73 | 101 | 0.0 | 0.0 | 0.00 | 0.00 | 0.00 | 85 | 1015.4 |
| 20260510033508 | 74 | 101 | 0.0 | 0.0 | 0.00 | 0.00 | 0.00 | 84 | 1015.4 |
| 20260510033004 | 74 | 101 | 0.0 | 0.0 | 0.00 | 0.00 | 0.00 | 84 | 1015.4 |
| 20260510032506 | 73 | 101 | 0.0 | 0.0 | 0.00 | 0.00 | 0.00 | 84 | 1015.4 |
| 20260510032003 | 73 | 101 | 0.0 | 0.0 | 0.00 | 0.00 | 0.00 | 84 | 1015.4 |
| 20260510031504 | 73 | 101 | 0.0 | 0.0 | 0.00 | 0.00 | 0.00 | 84 | 1015.3 |
| 20260510031004 | 73 | 101 | 0.0 | 0.0 | 0.00 | 0.00 | 0.00 | 84 | 1015.3 |
| 20260510030503 | 73 | 101 | 0.0 | 1.0 | 0.00 | 0.00 | 0.00 | 84 | 1015.3 |
| 20260510030007 | 74 | 101 | 0.0 | 1.0 | 0.00 | 0.00 | 0.00 | 83 | 1015.3 |
| 20260510025503 | 74 | 101 | 0.0 | 2.0 | 0.00 | 0.00 | 0.00 | 82 | 1015.2 |
| 20260510025004 | 74 | 101 | 0.0 | 3.0 | 0.00 | 0.00 | 0.00 | 82 | 1015.1 |
| 20260510024510 | 74 | 101 | 0.0 | 3.0 | 0.00 | 0.00 | 0.00 | 82 | 1015.0 |
| 20260510024006 | 74 | 115 | 1.0 | 3.0 | 0.00 | 0.00 | 0.00 | 82 | 1014.9 |
| 20260510023503 | 74 | 98 | 0.0 | 2.0 | 0.00 | 0.00 | 0.00 | 82 | 1014.7 |
| 20260510023012 | 74 | 111 | 0.0 | 3.0 | 0.00 | 0.00 | 0.00 | 82 | 1014.9 |
| 20260510022507 | 74 | 92 | 1.0 | 3.0 | 0.00 | 0.00 | 0.00 | 81 | 1014.8 |
| 20260510022002 | 74 | 113 | 1.0 | 3.0 | 0.00 | 0.00 | 0.00 | 82 | 1014.7 |
| 20260510021511 | 74 | 73 | 0.0 | 2.0 | 0.00 | 0.00 | 0.00 | 81 | 1014.7 |
| 20260510021008 | 74 | 73 | 0.0 | 2.0 | 0.00 | 0.00 | 0.00 | 81 | 1014.8 |
| 20260510020507 | 74 | 74 | 1.0 | 3.0 | 0.00 | 0.00 | 0.00 | 81 | 1014.7 |
| 20260510020014 | 74 | 42 | 2.0 | 3.0 | 0.00 | 0.00 | 0.00 | 80 | 1014.6 |
| 20260510015504 | 74 | 73 | 0.0 | 3.0 | 0.00 | 0.00 | 0.00 | 80 | 1014.6 |
| 20260510015003 | 75 | 56 | 1.0 | 3.0 | 0.00 | 0.00 | 0.00 | 80 | 1014.6 |
| 20260510014516 | 75 | 58 | 0.0 | 4.0 | 0.00 | 0.00 | 0.00 | 79 | 1014.6 |
| 20260510014007 | 75 | 81 | 2.0 | 4.0 | 0.00 | 0.00 | 0.00 | 79 | 1014.5 |
| 20260510013507 | 75 | 360 | 2.0 | 5.0 | 0.00 | 0.00 | 0.00 | 78 | 1014.5 |
| 20260510013025 | 75 | 360 | 3.0 | 6.0 | 0.00 | 0.00 | 0.00 | 78 | 1014.5 |
| 20260510012505 | 75 | 41 | 3.0 | 6.0 | 0.00 | 0.00 | 0.00 | 78 | 1014.4 |
| 20260510012007 | 76 | 71 | 3.0 | 6.0 | 0.00 | 0.00 | 0.00 | 78 | 1014.4 |
| 20260510011524 | 76 | 21 | 2.0 | 5.0 | 0.00 | 0.00 | 0.00 | 78 | 1014.4 |
| 20260510011007 | 76 | 29 | 2.0 | 5.0 | 0.00 | 0.00 | 0.00 | 77 | 1014.3 |
| 20260510010502 | 76 | 348 | 2.0 | 6.0 | 0.00 | 0.00 | 0.00 | 77 | 1014.3 |
| 20260510010014 | 76 | 340 | 2.0 | 6.0 | 0.00 | 0.00 | 0.00 | 77 | 1014.3 |
| 20260510005508 | 76 | 352 | 4.0 | 10.0 | 0.00 | 0.00 | 0.00 | 77 | 1014.4 |
| 20260510005003 | 76 | 5 | 3.0 | 10.0 | 0.00 | 0.00 | 0.00 | 77 | 1014.2 |
| 20260510004507 | 76 | 29 | 1.0 | 6.0 | 0.00 | 0.00 | 0.00 | 77 | 1014.1 |
| 20260510004006 | 76 | 44 | 2.0 | 9.0 | 0.00 | 0.00 | 0.00 | 77 | 1014.0 |
| 20260510003507 | 76 | 28 | 4.0 | 9.0 | 0.00 | 0.00 | 0.00 | 77 | 1013.9 |
| 20260510003004 | 76 | 360 | 4.0 | 9.0 | 0.00 | 0.00 | 0.00 | 77 | 1013.9 |
| 20260510002504 | 77 | 38 | 2.0 | 10.0 | 0.00 | 0.00 | 0.00 | 77 | 1013.9 |
| 20260510002006 | 77 | 352 | 5.0 | 10.0 | 0.00 | 0.00 | 0.00 | 77 | 1013.8 |
| 20260510001511 | 77 | 344 | 4.0 | 9.0 | 0.00 | 0.00 | 0.00 | 77 | 1013.7 |
| 20260510001005 | 77 | 360 | 5.0 | 10.0 | 0.00 | 0.00 | 0.00 | 77 | 1013.6 |
| 20260510000506 | 77 | 352 | 5.0 | 10.0 | 0.00 | 0.00 | 0.00 | 77 | 1013.6 |
| 20260510000026 | 78 | 343 | 5.0 | 13.0 | 0.00 | 0.00 | 0.00 | 77 | 1013.7 |
| 20260509235503 | 78 | 352 | 6.0 | 13.0 | 0.00 | 0.00 | 0.00 | 76 | 1013.6 |
| 20260509235012 | 78 | 5 | 7.0 | 13.0 | 0.00 | 0.00 | 0.00 | 76 | 1013.4 |
| 20260509234536 | 79 | 24 | 5.0 | 13.0 | 0.00 | 0.00 | 0.00 | 75 | 1013.4 |
| 20260509234009 | 80 | 329 | 7.0 | 15.0 | 0.00 | 0.00 | 0.00 | 74 | 1013.3 |
| 20260509233503 | 81 | 352 | 8.0 | 19.0 | 0.00 | 0.00 | 0.00 | 72 | 1013.3 |
| 20260509233035 | 82 | 352 | 11.0 | 17.0 | 0.00 | 0.00 | 0.00 | 70 | 1013.3 |
| 20260509232504 | 82 | 335 | 10.0 | 15.0 | 0.00 | 0.00 | 0.00 | 68 | 1013.2 |
| 20260509232006 | 82 | 337 | 7.0 | 15.0 | 0.00 | 0.00 | 0.00 | 68 | 1013.1 |
| 20260509231516 | 82 | 307 | 9.0 | 17.0 | 0.00 | 0.00 | 0.00 | 67 | 1013.1 |
| 20260509231005 | 83 | 345 | 6.0 | 17.0 | 0.00 | 0.00 | 0.00 | 67 | 1013.1 |
| 20260509230508 | 83 | 319 | 9.0 | 15.0 | 0.00 | 0.00 | 0.00 | 67 | 1013.0 |
| 20260509230022 | 83 | 329 | 4.0 | 11.0 | 0.00 | 0.00 | 0.00 | 67 | 1012.9 |
| 20260509225510 | 83 | 298 | 6.0 | 14.0 | 0.00 | 0.00 | 0.00 | 66 | 1012.9 |
| 20260509225009 | 83 | 352 | 8.0 | 14.0 | 0.00 | 0.00 | 0.00 | 66 | 1012.8 |
| 20260509224525 | 84 | 329 | 8.0 | 18.0 | 0.00 | 0.00 | 0.00 | 65 | 1012.7 |
| 20260509224008 | 84 | 309 | 12.0 | 18.0 | 0.00 | 0.00 | 0.00 | 64 | 1012.7 |
| 20260509223508 | 84 | 312 | 8.0 | 15.0 | 0.00 | 0.00 | 0.00 | 64 | 1012.6 |
| 20260509223027 | 85 | 296 | 9.0 | 15.0 | 0.00 | 0.00 | 0.00 | 63 | 1012.4 |
| 20260509222506 | 85 | 314 | 9.0 | 15.0 | 0.00 | 0.00 | 0.00 | 62 | 1012.3 |
| 20260509222008 | 85 | 295 | 11.0 | 15.0 | 0.00 | 0.00 | 0.00 | 62 | 1012.3 |
| 20260509221524 | 85 | 327 | 8.0 | 15.0 | 0.00 | 0.00 | 0.00 | 62 | 1012.3 |
| 20260509221014 | 86 | 352 | 9.0 | 17.0 | 0.00 | 0.00 | 0.00 | 61 | 1012.3 |
| 20260509220504 | 86 | 317 | 10.0 | 17.0 | 0.00 | 0.00 | 0.00 | 60 | 1012.2 |
| 20260509220019 | 87 | 317 | 9.0 | 17.0 | 0.00 | 0.00 | 0.00 | 56 | 1012.2 |
| 20260509215503 | 88 | 312 | 10.0 | 17.0 | 0.00 | 0.00 | 0.00 | 55 | 1012.1 |
| 20260509215008 | 88 | 325 | 9.0 | 15.0 | 0.00 | 0.00 | 0.00 | 54 | 1012.0 |
| 20260509214513 | 88 | 272 | 8.0 | 15.0 | 0.00 | 0.00 | 0.00 | 53 | 1011.9 |
| 20260509214006 | 89 | 309 | 9.0 | 15.0 | 0.00 | 0.00 | 0.00 | 52 | 1012.0 |
| 20260509213512 | 89 | 290 | 7.0 | 14.0 | 0.00 | 0.00 | 0.00 | 52 | 1012.0 |
| 20260509213018 | 89 | 273 | 8.0 | 13.0 | 0.00 | 0.00 | 0.00 | 52 | 1011.8 |
| 20260509212506 | 90 | 302 | 5.0 | 11.0 | 0.00 | 0.00 | 0.00 | 52 | 1011.8 |
| 20260509212013 | 90 | 275 | 8.0 | 13.0 | 0.00 | 0.00 | 0.00 | 53 | 1011.7 |
| 20260509211525 | 89 | 236 | 6.0 | 16.0 | 0.00 | 0.00 | 0.00 | 53 | 1011.7 |
| 20260509211007 | 89 | 277 | 8.0 | 16.0 | 0.00 | 0.00 | 0.00 | 53 | 1011.7 |
| 20260509210507 | 90 | 296 | 8.0 | 15.0 | 0.00 | 0.00 | 0.00 | 53 | 1011.6 |
| 20260509210030 | 90 | 270 | 7.0 | 16.0 | 0.00 | 0.00 | 0.00 | 53 | 1011.7 |
| 20260509205506 | 90 | 287 | 7.0 | 16.0 | 0.00 | 0.00 | 0.00 | 54 | 1011.7 |
| 20260509205010 | 90 | 279 | 10.0 | 15.0 | 0.00 | 0.00 | 0.00 | 54 | 1011.8 |
| 20260509204503 | 89 | 267 | 9.0 | 16.0 | 0.00 | 0.00 | 0.00 | 54 | 1011.8 |
| 20260509204009 | 89 | 290 | 12.0 | 15.0 | 0.00 | 0.00 | 0.00 | 55 | 1011.8 |
| 20260509203507 | 89 | 298 | 6.0 | 17.0 | 0.00 | 0.00 | 0.00 | 54 | 1011.7 |
| 20260509203008 | 90 | 327 | 11.0 | 17.0 | 0.00 | 0.00 | 0.00 | 54 | 1011.8 |
| 20260509202501 | 89 | 261 | 8.0 | 13.0 | 0.00 | 0.00 | 0.00 | 54 | 1011.8 |
| 20260509202003 | 89 | 278 | 7.0 | 13.0 | 0.00 | 0.00 | 0.00 | 56 | 1011.7 |
| 20260509201503 | 87 | 218 | 5.0 | 13.0 | 0.00 | 0.00 | 0.00 | 60 | 1011.8 |
| 20260509201002 | 86 | 198 | 3.0 | 5.0 | 0.00 | 0.00 | 0.00 | 64 | 1011.7 |
| 20260509200502 | 85 | 146 | 1.0 | 5.0 | 0.00 | 0.00 | 0.00 | 64 | 1011.9 |
| 20260509200007 | 87 | 187 | 2.0 | 6.0 | 0.00 | 0.00 | 0.00 | 63 | 1011.9 |
| 20260509195503 | 86 | 192 | 2.0 | 6.0 | 0.00 | 0.00 | 0.00 | 63 | 1011.8 |
| 20260509195002 | 86 | 203 | 3.0 | 7.0 | 0.00 | 0.00 | 0.00 | 62 | 1011.8 |
| 20260509194510 | 85 | 207 | 2.0 | 7.0 | 0.00 | 0.00 | 0.00 | 64 | 1011.9 |
| 20260509194007 | 85 | 248 | 1.0 | 6.0 | 0.00 | 0.00 | 0.00 | 66 | 1011.8 |
| 20260509193501 | 84 | 220 | 2.0 | 7.0 | 0.00 | 0.00 | 0.00 | 66 | 1011.9 |
| 20260509193012 | 84 | 250 | 4.0 | 7.0 | 0.00 | 0.00 | 0.00 | 65 | 1012.0 |
| 20260509192507 | 84 | 271 | 2.0 | 7.0 | 0.00 | 0.00 | 0.00 | 66 | 1012.0 |
| 20260509192002 | 84 | 163 | 2.0 | 18.0 | 0.00 | 0.00 | 0.00 | 66 | 1012.2 |
| 20260509191506 | 87 | 147 | 4.0 | 18.0 | 0.00 | 0.00 | 0.00 | 60 | 1012.3 |
| 20260509191004 | 89 | 245 | 7.0 | 14.0 | 0.00 | 0.00 | 0.00 | 53 | 1012.4 |
| 20260509190508 | 88 | 274 | 5.0 | 14.0 | 0.00 | 0.00 | 0.00 | 53 | 1012.2 |
| 20260509190007 | 88 | 272 | 6.0 | 14.0 | 0.00 | 0.00 | 0.00 | 53 | 1012.2 |
| 20260509185504 | 88 | 218 | 4.0 | 11.0 | 0.00 | 0.00 | 0.00 | 54 | 1012.3 |
| 20260509185005 | 89 | 171 | 2.0 | 11.0 | 0.00 | 0.00 | 0.00 | 54 | 1012.2 |
| 20260509184512 | 89 | 206 | 4.0 | 12.0 | 0.00 | 0.00 | 0.00 | 54 | 1012.2 |
| 20260509184006 | 89 | 271 | 5.0 | 14.0 | 0.00 | 0.00 | 0.00 | 52 | 1012.3 |
| 20260509183505 | 91 | 292 | 8.0 | 14.0 | 0.00 | 0.00 | 0.00 | 52 | 1012.4 |
| 20260509183008 | 90 | 281 | 10.0 | 14.0 | 0.00 | 0.00 | 0.00 | 52 | 1012.4 |